| time (UTC) | temp F | wind direction | speed MPH | gust MPH | rain 1hr in | rain 24hr in | rain mn in | humidity % | barometer mb |
| 20260508224553 | 81 | 69 | 0.0 | 2.0 | 0.00 | 0.00 | 0.00 | 27 | 1004.4 |
| 20260508223051 | 82 | 67 | 0.0 | 3.0 | 0.00 | 0.00 | 0.00 | 25 | 1004.4 |
| 20260508221552 | 81 | 67 | 0.0 | 1.0 | 0.00 | 0.00 | 0.00 | 26 | 1004.6 |
| 20260508220047 | 81 | 67 | 0.0 | 2.0 | 0.00 | 0.00 | 0.00 | 27 | 1004.7 |
| 20260508214546 | 80 | 67 | 0.0 | 1.0 | 0.00 | 0.00 | 0.00 | 28 | 1004.7 |
| 20260508213042 | 80 | 67 | 0.0 | 1.0 | 0.00 | 0.00 | 0.00 | 29 | 1004.9 |
| 20260508211538 | 79 | 67 | 0.0 | 2.0 | 0.00 | 0.00 | 0.00 | 30 | 1005.1 |
| 20260508210037 | 78 | 65 | 0.0 | 2.0 | 0.00 | 0.00 | 0.00 | 32 | 1005.3 |
| 20260508204536 | 79 | 69 | 0.0 | 4.0 | 0.00 | 0.00 | 0.00 | 32 | 1005.5 |
| 20260508203038 | 77 | 72 | 0.0 | 4.0 | 0.00 | 0.00 | 0.00 | 34 | 1005.6 |
| 20260508201533 | 77 | 74 | 0.0 | 2.0 | 0.00 | 0.00 | 0.00 | 34 | 1005.8 |
| 20260508200027 | 77 | 79 | 0.0 | 2.0 | 0.00 | 0.00 | 0.00 | 37 | 1006.0 |
| 20260508194523 | 75 | 78 | 0.0 | 3.0 | 0.00 | 0.00 | 0.00 | 37 | 1006.1 |
| 20260508193021 | 75 | 55 | 0.0 | 4.0 | 0.00 | 0.00 | 0.00 | 38 | 1006.3 |
| 20260508191524 | 74 | 53 | 0.0 | 4.0 | 0.00 | 0.00 | 0.00 | 37 | 1006.5 |
| 20260508190015 | 73 | 67 | 0.0 | 1.0 | 0.00 | 0.00 | 0.00 | 38 | 1006.7 |
| 20260508184514 | 73 | 67 | 1.0 | 3.0 | 0.00 | 0.00 | 0.00 | 37 | 1007.0 |
| 20260508183008 | 71 | 67 | 0.0 | 4.0 | 0.00 | 0.00 | 0.00 | 37 | 1007.2 |
| 20260508181505 | 71 | 69 | 0.0 | 2.0 | 0.00 | 0.00 | 0.00 | 42 | 1007.6 |
| 20260508180002 | 71 | 64 | 0.0 | 2.0 | 0.00 | 0.00 | 0.00 | 44 | 1007.9 |
| 20260508174609 | 70 | 61 | 0.0 | 2.0 | 0.00 | 0.00 | 0.00 | 43 | 1008.1 |
| 20260508173055 | 68 | 61 | 0.0 | 2.0 | 0.00 | 0.00 | 0.00 | 45 | 1008.4 |
| 20260508171552 | 67 | 63 | 0.0 | 2.0 | 0.00 | 0.00 | 0.00 | 46 | 1008.6 |
| 20260508170049 | 66 | 61 | 0.0 | 4.0 | 0.00 | 0.00 | 0.00 | 49 | 1008.6 |
| 20260508164548 | 66 | 65 | 0.0 | 3.0 | 0.00 | 0.00 | 0.00 | 48 | 1008.7 |
| 20260508163052 | 66 | 65 | 1.0 | 4.0 | 0.00 | 0.00 | 0.00 | 48 | 1008.9 |
| 20260508161542 | 65 | 60 | 0.0 | 3.0 | 0.00 | 0.00 | 0.00 | 48 | 1008.9 |
| 20260508160041 | 64 | 61 | 0.0 | 2.0 | 0.00 | 0.00 | 0.00 | 49 | 1009.0 |
| 20260508154538 | 63 | 66 | 0.0 | 3.0 | 0.00 | 0.00 | 0.00 | 52 | 1009.2 |
| 20260508153034 | 62 | 62 | 0.0 | 7.0 | 0.00 | 0.00 | 0.00 | 52 | 1009.3 |
| 20260508151536 | 61 | 71 | 0.0 | 2.0 | 0.00 | 0.00 | 0.00 | 55 | 1009.3 |
| 20260508150033 | 59 | 74 | 0.0 | 2.0 | 0.00 | 0.00 | 0.00 | 59 | 1009.5 |
| 20260508144526 | 56 | 82 | 0.0 | 1.0 | 0.00 | 0.00 | 0.00 | 64 | 1009.3 |
| 20260508143024 | 54 | 82 | 0.0 | 1.0 | 0.00 | 0.00 | 0.00 | 68 | 1009.0 |
| 20260508141535 | 52 | 82 | 0.0 | 1.0 | 0.00 | 0.00 | 0.00 | 73 | 1009.0 |
| 20260508140022 | 50 | 82 | 0.0 | 0.0 | 0.00 | 0.00 | 0.00 | 79 | 1008.9 |
| 20260508134525 | 48 | 82 | 0.0 | 0.0 | 0.00 | 0.00 | 0.00 | 82 | 1009.0 |
| 20260508133020 | 47 | 82 | 0.0 | 0.0 | 0.00 | 0.00 | 0.00 | 84 | 1008.9 |
| 20260508131519 | 46 | 82 | 0.0 | 0.0 | 0.00 | 0.00 | 0.00 | 85 | 1008.8 |
| 20260508130018 | 45 | 84 | 0.0 | 2.0 | 0.00 | 0.00 | 0.00 | 87 | 1008.8 |
| 20260508124516 | 44 | 84 | 0.0 | 0.0 | 0.00 | 0.00 | 0.00 | 87 | 1008.5 |
| 20260508123026 | 44 | 84 | 0.0 | 0.0 | 0.00 | 0.00 | 0.00 | 85 | 1008.5 |
| 20260508121514 | 44 | 84 | 0.0 | 0.0 | 0.00 | 0.00 | 0.00 | 84 | 1008.3 |
| 20260508120012 | 44 | 84 | 0.0 | 1.0 | 0.00 | 0.00 | 0.00 | 84 | 1008.0 |
| 20260508114511 | 45 | 69 | 0.0 | 0.0 | 0.00 | 0.00 | 0.00 | 83 | 1008.0 |
| 20260508113007 | 45 | 69 | 0.0 | 0.0 | 0.00 | 0.00 | 0.00 | 82 | 1008.0 |
| 20260508111505 | 46 | 69 | 0.0 | 0.0 | 0.00 | 0.00 | 0.00 | 81 | 1008.1 |
| 20260508110003 | 46 | 69 | 0.0 | 0.0 | 0.00 | 0.00 | 0.00 | 80 | 1008.0 |
| 20260508104500 | 47 | 69 | 0.0 | 0.0 | 0.00 | 0.00 | 0.00 | 79 | 1008.1 |
| 20260508103104 | 47 | 69 | 0.0 | 0.0 | 0.00 | 0.00 | 0.00 | 77 | 1008.0 |
| 20260508101556 | 48 | 69 | 0.0 | 0.0 | 0.00 | 0.00 | 0.00 | 74 | 1008.1 |
| 20260508100052 | 49 | 69 | 0.0 | 0.0 | 0.00 | 0.00 | 0.00 | 73 | 1008.2 |
| 20260508094549 | 50 | 69 | 0.0 | 0.0 | 0.00 | 0.00 | 0.00 | 71 | 1008.3 |
| 20260508093053 | 51 | 69 | 0.0 | 0.0 | 0.00 | 0.00 | 0.00 | 69 | 1008.3 |
| 20260508091549 | 53 | 69 | 0.0 | 0.0 | 0.00 | 0.00 | 0.00 | 67 | 1008.4 |
| 20260508090042 | 53 | 69 | 0.0 | 2.0 | 0.00 | 0.00 | 0.00 | 66 | 1008.2 |
| 20260508084537 | 54 | 69 | 0.0 | 0.0 | 0.00 | 0.00 | 0.00 | 65 | 1008.2 |
| 20260508083040 | 54 | 69 | 0.0 | 3.0 | 0.00 | 0.00 | 0.00 | 65 | 1008.2 |
| 20260508081534 | 55 | 59 | 0.0 | 2.0 | 0.00 | 0.00 | 0.00 | 65 | 1008.3 |
| 20260508080035 | 55 | 60 | 0.0 | 3.0 | 0.00 | 0.00 | 0.00 | 64 | 1008.3 |
| 20260508074531 | 56 | 53 | 0.0 | 2.0 | 0.00 | 0.00 | 0.00 | 63 | 1008.5 |
| 20260508073026 | 57 | 53 | 0.0 | 3.0 | 0.00 | 0.00 | 0.00 | 59 | 1008.7 |
| 20260508071529 | 58 | 53 | 0.0 | 2.0 | 0.00 | 0.00 | 0.00 | 56 | 1008.6 |
| 20260508070021 | 58 | 57 | 1.0 | 4.0 | 0.00 | 0.00 | 0.00 | 53 | 1008.8 |
| 20260508064521 | 59 | 59 | 1.0 | 5.0 | 0.00 | 0.00 | 0.00 | 52 | 1008.7 |
| 20260508063018 | 59 | 66 | 0.0 | 2.0 | 0.00 | 0.00 | 0.00 | 49 | 1008.7 |
| 20260508061516 | 59 | 59 | 0.0 | 1.0 | 0.00 | 0.00 | 0.00 | 53 | 1008.6 |
| 20260508060014 | 58 | 49 | 0.0 | 2.0 | 0.00 | 0.00 | 0.00 | 55 | 1008.6 |
| 20260508054512 | 56 | 30 | 0.0 | 1.0 | 0.00 | 0.00 | 0.00 | 58 | 1008.7 |
| 20260508053012 | 56 | 28 | 0.0 | 1.0 | 0.00 | 0.00 | 0.00 | 63 | 1008.5 |
| 20260508051511 | 56 | 28 | 0.0 | 0.0 | 0.00 | 0.00 | 0.00 | 63 | 1008.5 |
| 20260508050011 | 57 | 28 | 0.0 | 1.0 | 0.00 | 0.00 | 0.00 | 61 | 1008.8 |
| 20260508044510 | 57 | 28 | 0.0 | 0.0 | 0.00 | 0.00 | 0.00 | 59 | 1008.9 |
| 20260508043009 | 57 | 28 | 0.0 | 0.0 | 0.00 | 0.00 | 0.00 | 57 | 1008.9 |
| 20260508041509 | 57 | 28 | 0.0 | 0.0 | 0.00 | 0.00 | 0.00 | 58 | 1008.8 |
| 20260508040011 | 57 | 28 | 0.0 | 0.0 | 0.00 | 0.00 | 0.00 | 56 | 1009.0 |
| 20260508034508 | 58 | 28 | 0.0 | 0.0 | 0.00 | 0.00 | 0.00 | 52 | 1009.0 |
| 20260508033007 | 59 | 28 | 0.0 | 0.0 | 0.00 | 0.00 | 0.00 | 51 | 1008.9 |
| 20260508031506 | 60 | 28 | 0.0 | 0.0 | 0.00 | 0.00 | 0.00 | 46 | 1008.8 |
| 20260508030006 | 61 | 28 | 0.0 | 0.0 | 0.00 | 0.00 | 0.00 | 44 | 1008.6 |
| 20260508024507 | 62 | 28 | 0.0 | 0.0 | 0.00 | 0.00 | 0.00 | 42 | 1008.5 |
| 20260508023005 | 63 | 28 | 0.0 | 0.0 | 0.00 | 0.00 | 0.00 | 39 | 1008.3 |
| 20260508021509 | 65 | 28 | 0.0 | 0.0 | 0.00 | 0.00 | 0.00 | 37 | 1008.3 |
| 20260508020004 | 66 | 28 | 0.0 | 0.0 | 0.00 | 0.00 | 0.00 | 37 | 1008.3 |
| 20260508014504 | 68 | 28 | 0.0 | 0.0 | 0.00 | 0.00 | 0.00 | 34 | 1008.4 |
| 20260508013002 | 69 | 28 | 0.0 | 0.0 | 0.00 | 0.00 | 0.00 | 32 | 1008.2 |
| 20260508011502 | 71 | 28 | 0.0 | 1.0 | 0.00 | 0.00 | 0.00 | 30 | 1008.3 |
| 20260508010101 | 72 | 30 | 0.0 | 1.0 | 0.00 | 0.00 | 0.00 | 29 | 1008.4 |
| 20260508004610 | 72 | 30 | 0.0 | 0.0 | 0.00 | 0.00 | 0.00 | 29 | 1008.4 |
| 20260508003058 | 73 | 30 | 0.0 | 1.0 | 0.00 | 0.00 | 0.00 | 26 | 1008.5 |
| 20260508001557 | 73 | 5 | 0.0 | 1.0 | 0.00 | 0.00 | 0.00 | 27 | 1008.6 |
| 20260508000055 | 73 | 5 | 0.0 | 1.0 | 0.00 | 0.00 | 0.00 | 27 | 1008.7 |
| 20260507234554 | 73 | 5 | 0.0 | 1.0 | 0.00 | 0.00 | 0.00 | 27 | 1008.9 |
| 20260507233051 | 74 | 5 | 0.0 | 3.0 | 0.00 | 0.00 | 0.00 | 23 | 1009.1 |
| 20260507231554 | 77 | 5 | 0.0 | 2.0 | 0.00 | 0.00 | 0.00 | 22 | 1009.2 |
| 20260507230056 | 77 | 339 | 0.0 | 3.0 | 0.00 | 0.00 | 0.00 | 24 | 1009.4 |